Weather in Mezhador

Russia / Komi Republic     61°09′15″N   50°20′16″E
temp.,
°C
wind,
m/s
gust,
m/s
humid.,
%
clouds,
%
prec.,
mm/h
press.,
hPa
HPBL,
m
17 may, mon
mon1700:00+13ssw39903 0.0 1009206
03:00+13sw310941 0.0 1010271
06:00+15wsw410825 0.0 1011589
09:00+18w596783 0.3 10121251
12:00+18wnw596395 0.3 10141375
15:00+18wnw4656100 0.4 10151515
18:00+16nnw477182 0.0 1017921
21:00+12nnw378488 0.1 1019376
18 may, tue
tue1800:00+12n268248 0.0 1020379
03:00+8nne249734 0.0 1022101
06:00+12ene2376100 0.0 1023411
09:00+17e225442 0.0 1023907
12:00+20e224236 0.0 10221155
15:00+22se223870 0.0 10221493
18:00+20ese12485 0.0 1022119
21:00+14se22669 0.0 102219
19 may, wed
wed1900:00+12sse237412 0.0 102261
03:00+11sse268226 0.0 1022113
06:00+15sse3764100 0.0 1022244
09:00+20s4650100 0.0 1021731
12:00+24s453948 0.0 10201235
15:00+26ssw4535100 0.0 10191427
18:00+23ssw3749100 0.0 1018245
21:00+17s276688 0.0 1018110
20 may, thu
thu2000:00+14ssw27766 0.0 1018133
03:00+13ssw27795 0.0 1018137
06:00+18ssw36615 0.0 1018240
09:00+23ssw35405 0.0 1017969
12:00+27ssw46310 0.0 10161851
15:00+28ssw45280 0.0 10152150
18:00+25ssw36380 0.0 1014277
21:00+18ssw311625 0.0 1014218
21 may, fri
fri2100:00+15s210685 0.0 1014186
03:00+13s26785 0.0 1014105
06:00+17s386599 0.0 1014297
09:00+24s47464 0.0 10131419
12:00+27ssw5832100 0.0 10122823
15:00+27ssw583099 0.0 10123103
18:00+23wsw5951100 0.0 10121144
21:00+18sw31068100 0.1 1013441